Location: Cahas Mountain Overlook
(37.0833°N, 80.1000°W)
Time: 20:11:45
(UTC-05:00)

BlueWalker 3 - Pass Details

Date: 09 December 2022
Orbit: 499 x 517 km, 53.2° (Epoch: 31 January)

Event Time Altitude Azimuth Distance (km) Brightness Sun altitude
Rises 18:31:27 0° 318° (NW) 2,620 5.9 -17.1°
Reaches altitude 10° 18:33:46 10° 327° (NNW) 1,727 4.9 -17.5°
Enters shadow 18:37:23 38° 34° (NE) 781 2.5 -18.2°
